SL-8 R/B

Satellite information

Favourite Embed

Satellite Type and Status

ROCKET BODYIN ORBIT

Key statistics

Satellite SL-8 R/B at a glance.

Uptime

17362

Days in orbit

Revolutions

≈ 12.2

Per day

Orbit

LEO

Low Earth Orbit

Inclination

74.0

Latest

Satellite identification and parameters

Extended collection of information and parameters for SL-8 R/B.

Object identification

Identified? True

Debris? False

Object name: SL-8 R/B

International designator: 1978-056J

Object number (NORAD): 10938

Object ID (CCSDS): 10938

Country: COMMONWEALTH OF INDEPENDENT STATES (CIS)

Current information (Y/N): Y

RCS size: LARGE

Orbital parameters

Period: 117.885 minutes

Inclination: 74.0209 deg

SMA: 7964.005 km

Apoapsis: 1691.314 km

Periapsis: 1480.425 km

RAAN: 317.9381 deg

Eccentricy: 0.01324015

Argument of periapsis: 21.9955 deg

Mean anomaly: 34.1822 deg

Mean motion: 12.21533876 rev/day

Mean motion (dot): -0.00000047 rev/day2

B* drag term: -0.00030030225 1/REarth

Two-line elements (TLE)

Creation date: Dec. 19, 2025, 2:08 a.m.

Reference frame: TEME

Reference center: EARTH

Epoch: Dec. 18, 2025, 11:36 p.m. UTC

TLE line 0: 0 SL-8 R/B

TLE line 1: 1 10938U 78056J 25352.98342943 -.00000047 00000-0 -30030-3 0 9998

TLE line 2: 2 10938 74.0209 317.9381 0132401 21.9955 34.1822 12.21533876119637

Live tracking on map

Real-time ground track for satellite SL-8 R/B.

In-orbit conjunctions

A list of the most updated potential collisions computed for object SL-8 R/B.

Target Orbit TCA Probability of collision Miss distance Type
DELTA 1 DEB SSO 2025-02-12 05:11:56 0.0003666722 322.0 (m) DEBRIS
COSMOS 2499 DEB LEO 2024-10-04 11:16:33 0.002804421 56.0 (m) DEBRIS

Associated space launch

Military communications satellites

SL-8 R/B was lifted into orbit during the mission ‘Kosmos-3M | Strela-1M 145-152’, on board a Kosmos-3M space rocket.

The launch took place on June 7, 1978, 10 p.m. from 132/1 (132L).

For more information about the launch, click the button.

Launch to space Kosmos-3M | Strela-1M 145-152
Kosmos-3M | Strela-1M 145-152

Agency: N/A

Status: Launch Successful

Launch date: June 7, 1978, 10 p.m. UTC

Rocket: Kosmos-3M

Launch pad: 132/1 (132L)

Location: Plesetsk Cosmodrome, Russian Federation

...

Latest news about this satellite

There are no fresh news available about this satellite. Check back as we update our databases every day.


Newsletter sign-up

Weekly statistics, charts and insights to help you stay on top of the space industry.